This demonstration page uses our WeatherBlox Daily Observations layout. Learn more.

Left ArrowRight Arrow

Hourly Observations for October 6, 2015

Temp ( °F °C ) Dew Point ( °F °C ) Humidity (%) Winds ( mph kmh ) Pressure ( in mb ) Visibility ( mi km ) Precip ( " mm )
12:15 am 00:15 Clear 50 10 41 5 71 71 SSE 7 11 30.15 1021 10 16 0.00 0.00
12:35 am 00:35 Clear 50 10 43 6 76 76 SSE 7 11 30.15 1021 10 16 0.00 0.00
12:55 am 00:55 Clear 50 10 43 6 76 76 SSE 6 9 30.15 1021 10 16 0.00 0.00
1:15 am 01:15 Clear 48 9 43 6 82 82 undefined N/A 30.18 1022 10 16 0.00 0.00
1:35 am 01:35 Clear 48 9 43 6 82 82 SSE 3 6 30.18 1022 10 16 0.00 0.00
1:55 am 01:55 Clear 48 9 43 6 82 82 SSE 3 6 30.18 1022 10 16 0.00 0.00
2:15 am 02:15 Clear 48 9 43 6 82 82 SE 5 7 30.18 1022 10 16 0.00 0.00
2:35 am 02:35 Clear 48 9 43 6 82 82 SE 3 6 30.18 1022 10 16 0.00 0.00
2:55 am 02:55 Clear 46 8 43 6 87 87 SE 3 6 30.18 1022 10 16 0.00 0.00
3:15 am 03:15 Clear 46 8 43 6 87 87 ESE 3 6 30.18 1022 10 16 0.00 0.00
3:35 am 03:35 Clear 46 8 43 6 87 87 ESE 3 6 30.18 1022 10 16 0.00 0.00
3:55 am 03:55 Partly Cloudy 46 8 41 5 82 82 Calm 30.18 1022 10 16 0.00 0.00
4:15 am 04:15 Cloudy 46 8 43 6 87 87 Calm 30.18 1022 10 16 0.00 0.00
4:35 am 04:35 Cloudy 46 8 43 6 87 87 Calm 30.18 1022 10 16 0.00 0.00
4:55 am 04:55 Cloudy 48 9 45 7 87 87 Calm 30.18 1022 10 16 0.00 0.00
5:15 am 05:15 Cloudy 48 9 45 7 87 87 Calm 30.18 1022 10 16 0.00 0.00
5:35 am 05:35 Cloudy 50 10 45 7 82 82 Calm 30.15 1021 10 16 0.00 0.00
5:55 am 05:55 Cloudy 50 10 46 8 88 88 Calm 30.15 1021 10 16 0.00 0.00
6:15 am 06:15 Cloudy 52 11 46 8 82 82 Calm 30.15 1021 10 16 0.00 0.00
6:35 am 06:35 Cloudy 52 11 46 8 82 82 Calm 30.15 1021 10 16 0.00 0.00
6:55 am 06:55 Cloudy 52 11 46 8 82 82 Calm 30.15 1021 10 16 0.00 0.00
7:15 am 07:15 Cloudy 52 11 46 8 82 82 Calm 30.15 1021 10 16 0.00 0.00
7:35 am 07:35 Cloudy 52 11 46 8 82 82 Calm 30.15 1021 10 16 0.00 0.00
7:55 am 07:55 Cloudy 52 11 46 8 82 82 Calm 30.15 1021 10 16 0.00 0.00
8:15 am 08:15 Cloudy 54 12 46 8 77 77 Calm 30.18 1022 10 16 0.00 0.00
8:35 am 08:35 Cloudy 54 12 48 9 82 82 Calm 30.18 1022 10 16 0.00 0.00
8:55 am 08:55 Cloudy 54 12 48 9 82 82 Calm 30.18 1022 10 16 0.00 0.00
9:15 am 09:15 Cloudy 54 12 48 9 82 82 Calm 30.18 1022 10 16 0.00 0.00
9:35 am 09:35 Cloudy 55 13 48 9 77 77 Calm 30.18 1022 10 16 0.00 0.00
9:55 am 09:55 Cloudy 55 13 48 9 77 77 Calm 30.18 1022 10 16 0.00 0.00
10:15 am 10:15 Cloudy 57 14 48 9 72 72 S 5 7 30.15 1021 10 16 0.00 0.00
10:35 am 10:35 Cloudy 57 14 48 9 72 72 SSW 3 6 30.15 1021 10 16 0.00 0.00
10:55 am 10:55 Cloudy 57 14 50 10 77 77 Calm 30.15 1021 10 16 0.00 0.00
11:15 am 11:15 Cloudy 59 15 50 10 72 72 Calm 30.18 1022 10 16 0.00 0.00
11:35 am 11:35 Cloudy 59 15 52 11 77 77 N 5 7 30.15 1021 2 3 0.00 0.00
11:55 am 11:55 Cloudy 61 16 52 11 72 72 N 5 7 30.18 1022 10 16 0.00 0.00
12:15 pm 12:15 Cloudy 61 16 52 11 72 72 Calm 30.18 1022 10 16 0.00 0.00
12:35 pm 12:35 Cloudy 63 17 52 11 68 68 Calm 30.18 1022 10 16 0.00 0.00
12:55 pm 12:55 Cloudy 63 17 52 11 68 68 Calm 30.18 1022 10 16 0.00 0.00
1:15 pm 13:15 Cloudy 63 17 52 11 68 68 Calm 30.18 1022 10 16 0.00 0.00
1:35 pm 13:35 Cloudy 63 17 52 11 68 68 Calm 30.18 1022 10 16 0.00 0.00
1:55 pm 13:55 Cloudy 64 18 52 11 64 64 Calm 30.12 1020 10 16 0.00 0.00
2:15 pm 14:15 Cloudy 64 18 52 11 64 64 Calm 30.12 1020 9 14 0.00 0.00
2:35 pm 14:35 Cloudy 64 18 54 12 68 68 NE 6 9 30.12 1020 3 5 0.00 0.00
2:55 pm 14:55 Cloudy 64 18 54 12 68 68 NE 3 6 30.09 1019 6 10 0.00 0.00
3:15 pm 15:15 Cloudy 64 18 54 12 68 68 NE 3 6 30.09 1019 9 14 0.00 0.00
3:35 pm 15:35 Cloudy 66 19 54 12 64 64 ENE 5 7 30.09 1019 10 16 0.00 0.00
3:55 pm 15:55 Cloudy 66 19 54 12 64 64 ENE 3 6 30.09 1019 5 8 0.00 0.00
4:15 pm 16:15 Cloudy 66 19 54 12 64 64 E 3 6 30.09 1019 10 16 0.00 0.00
4:35 pm 16:35 Cloudy 68 20 54 12 60 60 E 5 7 30.09 1019 10 16 0.00 0.00
4:55 pm 16:55 Cloudy 68 20 54 12 60 60 ENE 5 7 30.09 1019 10 16 0.00 0.00
5:15 pm 17:15 Cloudy 68 20 54 12 60 60 ENE 6 9 30.09 1019 10 16 0.00 0.00
5:35 pm 17:35 Cloudy 68 20 54 12 60 60 ENE 5 7 30.09 1019 10 16 0.00 0.00
5:55 pm 17:55 Cloudy 68 20 54 12 60 60 ENE 6 9 30.06 1018 10 16 0.00 0.00
6:15 pm 18:15 Cloudy 68 20 54 12 60 60 ENE 5 7 30.06 1018 10 16 0.00 0.00
6:35 pm 18:35 Cloudy 66 19 54 12 64 64 ENE 3 6 30.06 1018 10 16 0.00 0.00
6:55 pm 18:55 Cloudy 66 19 54 12 64 64 Calm 30.06 1018 10 16 0.00 0.00
7:15 pm 19:15 Cloudy 66 19 54 12 64 64 Calm 30.09 1019 10 16 0.00 0.00
7:35 pm 19:35 Cloudy 64 18 54 12 68 68 ENE 3 6 30.09 1019 10 16 0.00 0.00
7:55 pm 19:55 Cloudy 64 18 54 12 68 68 NNE 3 6 30.09 1019 10 16 0.00 0.00
8:15 pm 20:15 Cloudy 64 18 54 12 68 68 Calm 30.09 1019 10 16 0.00 0.00
8:35 pm 20:35 Cloudy 64 18 54 12 68 68 ENE 5 7 30.09 1019 10 16 0.00 0.00
8:55 pm 20:55 Cloudy 63 17 54 12 73 73 NE 3 6 30.09 1019 10 16 0.00 0.00
9:15 pm 21:15 Cloudy 63 17 54 12 73 73 N 6 9 30.09 1019 10 16 0.00 0.00
9:35 pm 21:35 Cloudy 63 17 54 12 73 73 NNE 3 6 30.09 1019 10 16 0.00 0.00
9:55 pm 21:55 Cloudy 63 17 54 12 73 73 ENE 5 7 30.09 1019 10 16 0.00 0.00
10:15 pm 22:15 Cloudy 63 17 54 12 73 73 Calm 30.09 1019 10 16 0.00 0.00
10:35 pm 22:35 Cloudy 63 17 54 12 73 73 Calm 30.09 1019 10 16 0.00 0.00
10:55 pm 22:55 Cloudy 63 17 54 12 73 73 Calm 30.09 1019 10 16 0.00 0.00
11:15 pm 23:15 Cloudy 63 17 54 12 73 73 Calm 30.09 1019 10 16 0.00 0.00
11:35 pm 23:35 Cloudy 63 17 54 12 73 73 Calm 30.09 1019 10 16 0.00 0.00
11:55 pm 23:55 Cloudy 63 17 54 12 73 73 Calm 30.09 1019 10 16 0.00 0.00

Powered by AerisWeather